Regional Weather Roundup
Issued by NWS

Home | Current Version | Previous Version | Graphics & Text | Print | Product List | Glossary On
Versions: 1 2 3 4 5 6 7 8 9 10 11 12 13 14 15 16 17 18 19 20 21 22 23 24 25 26 27 28 29 30 31 32 33 34 35 36 37 38 39 40 41 42 43 44 45 46 47 48 49 50
000
ASUS45 KPSR 311600
RWRAZ

PRELIMINARY ARIZONA REGIONAL HOURLY WEATHER ROUNDUP
NATIONAL WEATHER SERVICE PHOENIX AZ
900 AM MST FRI OCT 31 2014

NOTE: FAIR INDICATES FEW OR NO CLOUDS BELOW 12,000 FEET WITH NO
SIGNIFICANT WEATHER AND/OR OBSTRUCTIONS TO VISIBILITY.

AZZ001>003-036-311700-
NORTHWEST ARIZONA

CITY           SKY/WX    TMP DP  RH WIND       PRES   REMARKS
KINGMAN        SUNNY     71  32  23 SE10      30.01S
$$

AZZ004>008-015-016-018-311700-
NORTH CENTRAL ARIZONA

CITY           SKY/WX    TMP DP  RH WIND       PRES   REMARKS
GRAND CANYON   PTSUNNY   60  29  30 SE8       30.22S
PRESCOTT       MOSUNNY   65  32  29 W6        30.13R
FLAGSTAFF      MOSUNNY   51  32  48 CALM      30.26R
PAYSON         MOSUNNY   63  32  31 VRB5      30.20S
PAGE           PTSUNNY   57  20  23 E3        30.15R
$$

AZZ009>014-017-311700-
NORTHEAST ARIZONA

CITY           SKY/WX    TMP DP  RH WIND       PRES   REMARKS
WINSLOW        NOT AVBL
SAINT JOHNS    SUNNY     66  31  27 SE12      30.23S
WINDOW ROCK    PTSUNNY   45  18  34 CALM      30.33S
$$

AZZ023-311700-
GREATER PHOENIX AREA

CITY           SKY/WX    TMP DP  RH WIND       PRES   REMARKS
PHOENIX        MOSUNNY   74  43  32 E8        29.92R
GLENDALE       MOSUNNY   72  45  37 CALM      29.94R
DEER VALLEY    SUNNY     76  36  23 CALM      29.94R
SCOTTSDALE     SUNNY     72  44  36 W5        29.95R
MESA-FALCON    PTSUNNY   72  41  33 CALM      29.93S
MESA-GATEWAY   MOSUNNY   72  46  40 SE5       29.95S
CHANDLER       PTSUNNY   70  45  40 CALM      29.94R
$$

AZZ027-028-311700-
SOUTHWEST MARICOPA COUNTY AND PINAL COUNTY

CITY           SKY/WX    TMP DP  RH WIND       PRES   REMARKS
CASA GRANDE    MOSUNNY   70  43  37 CALM      29.95S
$$

AZZ503-504-507>509-311700-
SOUTHEAST ARIZONA

CITY           SKY/WX    TMP DP  RH WIND       PRES   REMARKS
TUCSON         MOSUNNY   78  38  23 SE20      30.03R
RYAN FIELD       N/A     72  46  40 E7        30.02R
NOGALES        PTSUNNY   67  47  48 CALM      30.09R
SIERRA VISTA   PTSUNNY   70  39  32 SE12      30.17R
SAFFORD        SUNNY     69  37  30 SE7       30.17R
$$

AZZ020-021-025-026-031-311700-
SOUTHWEST ARIZONA

CITY           SKY/WX    TMP DP  RH WIND       PRES   REMARKS
YUMA           NOT AVBL
$$

CAZ031-033-041-043-047-048-061-311700-
SOUTHERN CALIFORNIA

CITY           SKY/WX    TMP DP  RH WIND       PRES   REMARKS
DOWNTOWN L.A.  CLOUDY    66  57  72 VRB3      29.97R
L.A. AIRPORT   PTSUNNY   65  62  89 E6        29.98R
SAN DIEGO      PTSUNNY   69  59  70 CALM      29.98S
BURBANK        CLOUDY    63  55  75 CALM      29.98R
ONTARIO        CLOUDY    62  56  80 CALM      29.99R HAZE
RIVERSIDE      PTSUNNY   60  56  86 CALM      29.99R FOG
PALM SPRINGS   SUNNY     66  49  54 S3        29.90R
EL CENTRO NAS  SUNNY     71  40  32 SW6       29.86R
IMPERIAL       SUNNY     69  45  41 CALM      29.86R
BLYTHE         SUNNY     68  41  37 CALM      29.89R
$$

NVZ020-UTZ003-311700-
SOUTHERN NEVADA-UTAH

CITY           SKY/WX    TMP DP  RH WIND       PRES   REMARKS
LAS VEGAS      NOT AVBL
SALT LAKE CITY PTSUNNY   61  24  24 SE16      30.00S
$$

NMZ009-TXZ055-311700-
NEW MEXICO-WEST TEXAS

CITY           SKY/WX    TMP DP  RH WIND       PRES   REMARKS
ALBUQUERQUE    MOSUNNY   57  28  33 E20       30.38R
EL PASO        MOSUNNY   64  36  35 E14       30.34S
$$


........................KEY........................
SKY/WX - SKY CONDITION/WEATHER
TMP    - TEMPERATURE IN FAHRENHEIT
DP     - DEW POINT IN FAHRENHEIT
RH     - RELATIVE HUMIDITY IN PERCENT
WIND   - DIRECTION AND SPEED IN MILES PER HOUR (MPH)
VRB    - VARIABLE WIND DIRECTION
PRES   - MEAN SEA LEVEL PRESSURE IN INCHES OF MERCURY
         F - FALLING PRESSURE   R - RISING PRESSURE
         S - STEADY PRESSURE
VSB    - VISIBILITY IN MILES
HX     - HEAT INDEX IN FAHRENHEIT
WCI    - WIND CHILL INDEX IN FAHRENHEIT
TC     - TEMPERATURE IN CELSIUS WHICH IS ALSO KNOWN AS
         TEMPERATURE IN CENTIGRADE
AFB    - AIR FORCE BASE
         LUKE AFB IS LUKE AIR FORCE BASE
         DAVIS-MONTHAN IS DAVIS-MONTHAN AIR FORCE BASE
NAS    - NAVAL AIR STATION
         EL CENTRO NAS IS EL CENTRO NAVAL AIR STATION
N/A    - NOT AVAILABLE



USA.gov is the U.S. government's official web portal to all federal, state and local government web resources and services.